QPF
0.00 0.00 0.00 0.00 0.00 0.00 0.00 0.00 0.00 0.00 0.00 0.00 0.00 0.00 0.00 0.00 0.00 0.00 0.00 0.00 0.00 0.00 0.00 0.01 0.01 0.08 0.26 0.11 0.00 0.00 0.00 0.00 0.00 0.00 0.00 0.00 0.00 0.00 0.00 0.00 0.00 0.00 0.00 0.00
0.00 0.00 0.00 0.00 0.00 0.00 0.00 0.00 0.00 0.00 0.00 0.00 0.00 0.00 0.00 0.00 0.00 0.00 0.00 0.00 0.00 0.00 0.00 0.00 0.01 0.01 0.06 0.24 0.14 0.01 0.00 0.00 0.00 0.00 0.00 0.00 0.00 0.00 0.00 0.00 0.00 0.00 0.00 0.00
0.00 0.00 0.00 0.00 0.00 0.00 0.00 0.00 0.00 0.00 0.00 0.00 0.00 0.00 0.00 0.00 0.00 0.00 0.00 0.00 0.00 0.00 0.00 0.00 0.00 0.01 0.02 0.03 0.08 0.03 0.00 0.00 0.00 0.00 0.00 0.00 0.00 0.00 0.00 0.00 0.00 0.00 0.00 0.00
0.01 0.00 0.00 0.00 0.00 0.00 0.00 0.00 0.00 0.00 0.00 0.00 0.00 0.00 0.00 0.00 0.00 0.00 0.00 0.00 0.00 0.00 0.00 0.00 0.00 0.00 0.00 0.00 0.02 0.02 0.00 0.00 0.00 0.00 0.00 0.00 0.00 0.00 0.00 0.00 0.00 0.00 0.00 0.00
0.01 0.00 0.00 0.00 0.00 0.00 0.00 0.00 0.00 0.00 0.00 0.00 0.00 0.00 0.00 0.00 0.00 0.00 0.00 0.00 0.00 0.00 0.00 0.00 0.00 0.00 0.00 0.00 0.00 0.00 0.00 0.00 0.00 0.00 0.00 0.00 0.00 0.00 0.00 0.00 0.00 0.00 0.00 0.00
0.00 0.00 0.00 0.00 0.00 0.00 0.00 0.00 0.01 0.00 0.00 0.02 0.00 0.00 0.00 0.00 0.00 0.00 0.00 0.00 0.00 0.00 0.00 0.00 0.00 0.00 0.00 0.00 0.00 0.00 0.00 0.00 0.00 0.00 0.00 0.00 0.00 0.00 0.00 0.00 0.00 0.00 0.00 0.00
0.00 0.00 0.00 0.00 0.00 0.00 0.00 0.01 0.11 0.10 0.06 0.01 0.00 0.00 0.00 0.00 0.00 0.00 0.00 0.00 0.00 0.00 0.00 0.00 0.00 0.00 0.00 0.00 0.00 0.00 0.00 0.00 0.00 0.00 0.00 0.00 0.00 0.00 0.00 0.00 0.00 0.00 0.00 0.00
0.02 0.00 0.00 0.00 0.00 0.00 0.00 0.01 0.04 0.03 0.01 0.00 0.00 0.00 0.00 0.00 0.00 0.00 0.00 0.00 0.00 0.00 0.00 0.00 0.00 0.00 0.00 0.00 0.00 0.00 0.00 0.00 0.00 0.00 0.00 0.00 0.00 0.00 0.00 0.00 0.00 0.00 0.00 0.00
0.05 0.02 0.00 0.00 0.00 0.00 0.00 0.02 0.02 0.00 0.00 0.00 0.00 0.00 0.00 0.00 0.00 0.00 0.00 0.00 0.00 0.00 0.00 0.00 0.00 0.00 0.00 0.00 0.00 0.00 0.00 0.00 0.00 0.00 0.00 0.00 0.00 0.00 0.00 0.00 0.00 0.00 0.00 0.00
0.11 0.09 0.01 0.00 0.00 0.01 0.00 0.00 0.03 0.12 0.11 0.02 0.00 0.00 0.00 0.00 0.00 0.00 0.00 0.00 0.00 0.00 0.00 0.00 0.00 0.00 0.00 0.00 0.00 0.00 0.00 0.00 0.00 0.00 0.00 0.00 0.00 0.00 0.00 0.00 0.00 0.00 0.00 0.00
0.14 0.23 0.10 0.03 0.01 0.01 0.00 0.01 0.05 0.06 0.02 0.00 0.00 0.00 0.00 0.00 0.00 0.00 0.00 0.00 0.00 0.00 0.00 0.00 0.00 0.00 0.00 0.00 0.00 0.00 0.00 0.00 0.00 0.00 0.00 0.00 0.00 0.00 0.00 0.00 0.00 0.00 0.00 0.00
0.00 0.04 0.05 0.05 0.03 0.03 0.03 0.02 0.03 0.08 0.02 0.00 0.00 0.00 0.00 0.00 0.00 0.00 0.00 0.00 0.00 0.00 0.00 0.00 0.00 0.00 0.00 0.00 0.00 0.00 0.00 0.00 0.00 0.00 0.00 0.00 0.00 0.00 0.00 0.00 0.00 0.00 0.00 0.00
0.03 0.03 0.02 0.01 0.01 0.04 0.16 0.20 0.27 0.25 0.16 0.07 0.00 0.00 0.00 0.00 0.00 0.00 0.00 0.00 0.00 0.00 0.00 0.00 0.00 0.00 0.00 0.00 0.00 0.00 0.00 0.00 0.00 0.00 0.00 0.00 0.00 0.00 0.00 0.00 0.00 0.00 0.00 0.00
0.03 0.04 0.02 0.01 0.00 0.04 0.11 0.14 0.19 0.35 0.45 0.27 0.09 0.01 0.00 0.00 0.00 0.00 0.00 0.00 0.00 0.00 0.00 0.00 0.00 0.00 0.00 0.00 0.00 0.00 0.00 0.00 0.00 0.00 0.00 0.00 0.00 0.00 0.00 0.00 0.00 0.00 0.00 0.00
0.00 0.00 0.00 0.00 0.00 0.00 0.01 0.02 0.04 0.10 0.09 0.17 0.06 0.03 0.01 0.00 0.00 0.00 0.00 0.00 0.00 0.00 0.00 0.00 0.00 0.00 0.00 0.00 0.00 0.00 0.00 0.00 0.00 0.00 0.00 0.00 0.00 0.00 0.00 0.00 0.00 0.00 0.00 0.00
0.00 0.00 0.00 0.00 0.00 0.00 0.00 0.00 0.01 0.02 0.02 0.04 0.02 0.03 0.01 0.00 0.00 0.00 0.00 0.00 0.00 0.00 0.00 0.00 0.00 0.00 0.00 0.00 0.00 0.00 0.00 0.00 0.00 0.00 0.00 0.00 0.00 0.00 0.00 0.00 0.00 0.00 0.00 0.00
0.00 0.00 0.00 0.00 0.00 0.00 0.00 0.00 0.00 0.00 0.00 0.00 0.01 0.00 0.01 0.01 0.00 0.00 0.00 0.00 0.00 0.00 0.00 0.00 0.00 0.00 0.00 0.00 0.00 0.00 0.00 0.00 0.00 0.00 0.00 0.00 0.00 0.00 0.00 0.00 0.00 0.00 0.00 0.00
0.00 0.00 0.00 0.00 0.00 0.00 0.00 0.00 0.00 0.00 0.00 0.00 0.00 0.00 0.01 0.01 0.01 0.01 0.00 0.00 0.02 0.01 0.00 0.00 0.00 0.00 0.00 0.00 0.00 0.00 0.00 0.00 0.00 0.00 0.00 0.00 0.00 0.00 0.00 0.00 0.00 0.00 0.00 0.00
0.00 0.00 0.00 0.00 0.00 0.00 0.00 0.00 0.00 0.00 0.00 0.00 0.00 0.00 0.02 0.04 0.04 0.06 0.03 0.01 0.02 0.07 0.07 0.02 0.00 0.00 0.00 0.00 0.00 0.00 0.00 0.00 0.00 0.00 0.00 0.00 0.00 0.00 0.00 0.00 0.00 0.00 0.00 0.00
0.00 0.00 0.00 0.00 0.00 0.00 0.00 0.00 0.00 0.00 0.00 0.00 0.00 0.00 0.01 0.02 0.08 0.06 0.04 0.05 0.07 0.09 0.05 0.02 0.02 0.01 0.01 0.02 0.02 0.02 0.02 0.02 0.01 0.00 0.00 0.00 0.00 0.00 0.00 0.00 0.00 0.00 0.00 0.00
0.00 0.03 0.06 0.02 0.01 0.00 0.00 0.00 0.00 0.01 0.00 0.00 0.00 0.01 0.01 0.03 0.03 0.05 0.09 0.13 0.13 0.11 0.08 0.04 0.03 0.04 0.05 0.05 0.04 0.04 0.02 0.01 0.01 0.01 0.01 0.01 0.00 0.00 0.00 0.00 0.00 0.00 0.00 0.00
0.00 0.00 0.01 0.05 0.07 0.05 0.00 0.00 0.00 0.00 0.00 0.00 0.00 0.01 0.03 0.05 0.06 0.09 0.14 0.15 0.13 0.12 0.11 0.07 0.05 0.06 0.07 0.06 0.05 0.04 0.02 0.02 0.02 0.01 0.00 0.00 0.00 0.00 0.00 0.00 0.00 0.00 0.00 0.00
0.03 0.04 0.02 0.02 0.04 0.04 0.01 0.00 0.00 0.00 0.00 0.00 0.00 0.01 0.02 0.04 0.06 0.08 0.10 0.11 0.10 0.08 0.07 0.08 0.07 0.06 0.05 0.04 0.03 0.02 0.01 0.01 0.00 0.00 0.00 0.00 0.00 0.00 0.00 0.00 0.00 0.00 0.00 0.00
0.00 0.00 0.00 0.00 0.00 0.00 0.00 0.00 0.00 0.01 0.01 0.01 0.00 0.00 0.00 0.01 0.03 0.04 0.05 0.08 0.09 0.08 0.07 0.07 0.06 0.04 0.02 0.01 0.01 0.01 0.00 0.00 0.00 0.00 0.00 0.00 0.00 0.00 0.00 0.00 0.00 0.00 0.00 0.00
0.00 0.00 0.00 0.00 0.00 0.00 0.00 0.00 0.00 0.01 0.01 0.01 0.02 0.01 0.02 0.02 0.05 0.04 0.05 0.06 0.07 0.08 0.08 0.06 0.04 0.03 0.01 0.00 0.00 0.00 0.00 0.00 0.00 0.00 0.00 0.00 0.00 0.00 0.00 0.00 0.00 0.00 0.00 0.00
0.00 0.00 0.00 0.00 0.00 0.00 0.00 0.00 0.00 0.00 0.01 0.01 0.01 0.03 0.04 0.03 0.05 0.05 0.06 0.06 0.06 0.06 0.05 0.04 0.02 0.01 0.00 0.00 0.00 0.00 0.00 0.00 0.00 0.00 0.00 0.00 0.00 0.00 0.00 0.00 0.00 0.00 0.00 0.00
MSLP
1013.89 1014.21 1014.11 1014.53 1014.86 1015.08 1015.84 1016.59 1017.02 1017.03 1017.82 1019.01 1020.11 1020.97 1022.19 1023.47 1024.20 1024.51 1024.95 1025.66 1026.20 1026.83 1027.29 1028.12 1028.81 1028.87 1027.81 1028.96 1029.22 1029.00 1028.54 1028.48 1028.54 1029.30 1029.42 1029.77 1030.77 1030.83 1031.02 1030.76 1030.58 1030.08 1029.95 1029.56
1014.26 1014.07 1014.41 1014.58 1014.82 1015.08 1015.43 1016.10 1016.67 1017.13 1017.54 1018.75 1019.53 1020.05 1021.30 1022.54 1022.85 1023.38 1024.11 1024.81 1025.52 1026.23 1027.08 1027.75 1028.51 1028.93 1029.12 1029.09 1029.24 1029.37 1029.52 1028.64 1029.09 1029.28 1029.83 1030.15 1030.85 1031.49 1031.47 1031.45 1031.09 1030.78 1030.73 1030.25
1013.89 1013.48 1014.02 1014.48 1014.61 1014.94 1015.04 1015.40 1016.20 1016.78 1017.57 1018.54 1019.32 1019.98 1020.54 1021.37 1022.12 1022.95 1023.65 1024.04 1024.65 1024.64 1025.58 1026.66 1027.86 1028.26 1028.90 1029.35 1029.95 1029.03 1030.15 1029.43 1029.08 1029.68 1030.15 1030.44 1031.17 1031.46 1031.78 1031.95 1031.56 1031.59 1031.45 1031.17
1014.14 1013.65 1013.62 1013.94 1013.91 1014.28 1014.53 1014.72 1015.39 1016.33 1017.42 1018.11 1018.46 1018.95 1019.51 1019.98 1020.86 1021.96 1022.39 1022.99 1023.18 1023.66 1025.00 1026.40 1027.26 1027.78 1028.78 1029.65 1029.70 1029.86 1030.34 1029.82 1029.56 1029.92 1030.23 1030.69 1030.86 1031.53 1032.39 1032.30 1032.32 1032.26 1032.17 1031.86
1013.56 1013.34 1013.44 1013.14 1012.79 1013.65 1013.63 1014.10 1014.81 1015.77 1016.65 1017.34 1018.43 1019.36 1018.00 1019.04 1020.26 1020.25 1020.11 1020.51 1021.79 1022.93 1024.48 1025.98 1026.93 1027.34 1028.35 1029.57 1029.88 1029.90 1030.43 1030.06 1030.08 1030.14 1030.70 1031.12 1031.38 1032.16 1032.54 1032.56 1032.78 1032.94 1032.90 1032.63
1012.94 1012.61 1012.61 1012.23 1012.33 1012.74 1013.32 1014.17 1014.89 1015.83 1016.63 1016.74 1016.41 1017.77 1015.96 1016.84 1016.59 1016.65 1017.83 1019.35 1020.57 1022.22 1024.07 1025.71 1026.73 1027.16 1028.43 1029.42 1029.91 1030.15 1030.19 1030.41 1030.69 1030.82 1031.22 1031.30 1031.68 1032.44 1032.61 1032.98 1033.37 1033.67 1033.67 1033.59
1012.99 1012.29 1011.97 1011.80 1012.01 1012.02 1012.75 1013.74 1014.49 1015.33 1015.74 1014.35 1014.91 1016.44 1012.23 1013.79 1013.87 1014.04 1015.08 1016.86 1019.52 1021.64 1023.33 1024.91 1026.18 1027.38 1028.57 1029.41 1029.96 1030.31 1030.46 1030.96 1031.24 1031.59 1031.63 1031.74 1032.07 1032.63 1032.97 1033.47 1033.92 1034.21 1034.45 1034.46
1013.00 1012.23 1011.25 1010.72 1010.70 1010.66 1011.05 1012.60 1012.79 1012.97 1013.45 1013.73 1014.19 1013.26 1011.83 1011.93 1012.73 1013.73 1014.23 1016.23 1019.01 1021.09 1022.73 1024.56 1026.04 1027.06 1028.12 1029.33 1030.13 1030.43 1030.84 1031.51 1032.13 1031.99 1032.07 1032.26 1032.63 1033.24 1033.79 1034.15 1034.38 1034.90 1035.24 1035.46
1012.65 1011.78 1010.38 1009.49 1009.20 1010.05 1010.66 1011.12 1011.40 1012.19 1012.48 1013.06 1012.53 1011.80 1011.66 1012.31 1013.07 1014.17 1015.39 1017.11 1019.39 1021.42 1023.24 1024.94 1026.33 1027.30 1028.43 1029.42 1030.04 1030.77 1031.48 1032.09 1032.38 1032.38 1032.70 1033.23 1033.53 1034.00 1034.36 1034.82 1035.28 1035.64 1035.75 1035.91
1012.80 1011.97 1010.88 1009.83 1009.58 1009.33 1009.42 1010.51 1011.49 1011.69 1011.52 1011.72 1011.37 1011.53 1011.51 1012.60 1013.27 1014.95 1016.55 1018.30 1020.51 1022.50 1024.10 1025.52 1026.63 1027.59 1028.72 1029.74 1030.70 1031.46 1032.07 1032.46 1032.64 1033.04 1033.49 1034.08 1034.53 1034.81 1035.14 1035.64 1036.12 1036.43 1036.69 1036.71
1013.83 1013.57 1012.12 1011.35 1010.48 1010.07 1010.20 1010.35 1010.71 1011.24 1011.06 1010.95 1010.91 1009.99 1010.09 1011.27 1012.28 1014.26 1016.45 1018.76 1020.78 1022.87 1024.40 1025.87 1027.28 1028.46 1029.41 1030.38 1031.14 1031.87 1032.45 1032.73 1033.18 1033.80 1034.28 1034.79 1035.39 1035.77 1036.15 1036.56 1037.00 1037.17 1037.28 1037.48
1014.31 1014.18 1013.31 1011.99 1010.82 1010.77 1011.17 1010.22 1010.20 1010.14 1010.14 1010.02 1010.36 1009.21 1010.53 1011.66 1012.70 1014.51 1017.45 1019.85 1022.02 1023.67 1025.21 1026.60 1027.90 1029.15 1030.20 1031.00 1031.68 1032.35 1032.90 1033.33 1033.92 1034.43 1034.87 1035.51 1035.98 1036.55 1037.03 1037.33 1037.71 1037.93 1038.25 1038.24
1015.19 1014.66 1014.15 1012.81 1012.30 1011.96 1011.85 1011.76 1011.21 1011.06 1010.27 1009.84 1010.69 1009.50 1012.00 1012.83 1014.22 1016.18 1018.04 1020.53 1022.45 1024.26 1025.87 1027.29 1028.58 1029.72 1030.74 1031.61 1032.22 1032.87 1033.49 1034.10 1034.71 1035.24 1035.73 1036.41 1036.93 1037.40 1037.86 1038.33 1038.55 1038.53 1038.71 1038.73
1015.75 1015.66 1015.53 1014.76 1013.87 1013.68 1013.23 1012.59 1012.19 1011.77 1011.41 1010.76 1011.33 1012.25 1013.22 1014.46 1015.65 1017.14 1019.14 1021.04 1022.92 1024.56 1026.04 1027.54 1029.11 1030.39 1031.44 1032.31 1033.05 1033.81 1034.37 1034.77 1035.36 1036.02 1036.66 1037.17 1037.69 1038.19 1038.65 1039.00 1038.97 1038.96 1039.25 1039.28
1016.59 1016.58 1016.39 1015.83 1015.47 1014.91 1014.26 1013.56 1012.83 1012.56 1011.68 1011.37 1011.45 1012.37 1013.25 1015.08 1015.74 1017.13 1018.97 1021.31 1023.09 1024.84 1026.38 1027.68 1029.19 1030.73 1031.98 1033.08 1033.91 1034.61 1035.38 1035.71 1036.08 1036.73 1037.34 1037.92 1038.45 1038.90 1039.17 1039.25 1039.44 1039.74 1039.73 1039.87
1017.25 1017.58 1017.61 1017.30 1016.91 1016.31 1015.37 1014.63 1013.92 1013.15 1012.28 1012.17 1012.26 1012.34 1012.84 1014.05 1016.80 1018.68 1019.25 1021.00 1022.92 1024.74 1026.23 1027.97 1029.24 1030.90 1032.19 1033.30 1034.29 1035.11 1035.80 1036.37 1036.70 1037.18 1037.74 1038.25 1038.68 1039.00 1039.17 1039.33 1039.44 1039.53 1039.71 1039.74
1018.51 1018.72 1019.38 1019.03 1018.53 1018.08 1016.73 1015.55 1014.66 1013.76 1012.79 1012.55 1012.94 1012.69 1013.66 1015.57 1016.39 1018.42 1019.58 1019.79 1021.79 1023.99 1025.93 1028.14 1029.16 1030.58 1032.06 1033.19 1034.07 1035.10 1035.94 1036.51 1036.97 1037.43 1037.88 1038.26 1038.64 1038.92 1039.08 1039.08 1039.14 1039.36 1039.56 1039.62
1018.49 1019.44 1020.22 1020.51 1020.53 1019.79 1017.54 1016.85 1016.59 1016.18 1015.02 1014.51 1014.02 1014.19 1014.49 1015.57 1017.04 1018.66 1020.13 1021.74 1022.40 1023.82 1025.56 1027.60 1029.51 1031.03 1032.26 1033.25 1034.28 1034.98 1035.90 1036.57 1037.01 1037.49 1037.92 1038.30 1038.59 1038.82 1039.02 1039.12 1039.26 1039.41 1039.56 1039.81
1018.02 1019.40 1020.67 1021.85 1021.63 1020.27 1019.34 1019.58 1019.74 1018.99 1017.35 1016.95 1016.52 1016.30 1017.02 1017.33 1018.69 1020.35 1021.14 1022.54 1024.06 1025.21 1026.11 1027.69 1028.99 1030.81 1032.43 1033.40 1034.42 1035.08 1035.90 1036.49 1036.95 1037.44 1037.82 1038.18 1038.49 1038.78 1039.02 1039.23 1039.49 1039.76 1039.90 1040.14
1018.06 1018.93 1020.61 1022.11 1022.34 1021.74 1021.26 1021.68 1021.65 1021.53 1020.48 1019.28 1018.69 1018.43 1018.56 1018.67 1020.09 1021.36 1022.33 1023.58 1025.07 1026.17 1027.35 1028.62 1029.97 1031.08 1032.56 1033.84 1034.48 1035.14 1035.97 1036.52 1036.99 1037.37 1037.75 1038.10 1038.30 1038.66 1039.07 1039.45 1039.81 1040.14 1040.29 1040.31
1019.57 1019.79 1020.16 1020.73 1021.60 1021.93 1022.82 1023.33 1023.31 1023.44 1022.92 1021.44 1020.64 1020.12 1020.04 1020.38 1021.14 1022.20 1023.44 1024.86 1026.05 1027.00 1028.05 1029.45 1030.64 1031.66 1033.06 1034.01 1034.69 1035.40 1036.03 1036.56 1037.00 1037.33 1037.73 1038.05 1038.34 1038.75 1039.16 1039.63 1040.04 1040.22 1040.45 1040.67
1021.16 1021.13 1021.13 1021.49 1021.76 1022.93 1024.11 1024.76 1025.06 1024.09 1023.28 1022.59 1022.07 1021.58 1021.68 1022.13 1022.96 1023.58 1024.48 1025.51 1026.41 1027.81 1028.90 1030.08 1031.09 1032.39 1033.61 1034.32 1034.88 1035.56 1036.12 1036.46 1036.92 1037.38 1037.87 1038.25 1038.54 1038.65 1039.19 1039.65 1040.21 1040.64 1040.88 1041.05
1022.43 1022.66 1022.83 1023.08 1023.11 1023.93 1024.97 1025.29 1025.28 1025.22 1024.45 1023.34 1022.71 1022.56 1022.21 1023.21 1023.99 1024.74 1025.61 1026.63 1027.62 1028.50 1029.43 1030.63 1031.72 1032.98 1034.02 1034.71 1035.21 1035.61 1036.23 1036.72 1037.25 1037.80 1038.28 1038.69 1039.04 1039.27 1039.60 1039.95 1040.49 1040.96 1041.12 1041.27
1023.85 1024.05 1024.61 1024.82 1024.85 1025.47 1025.87 1025.78 1025.55 1024.96 1024.51 1023.84 1022.98 1023.01 1023.66 1023.86 1024.87 1025.77 1026.59 1027.82 1028.56 1029.32 1030.26 1031.38 1032.34 1033.38 1034.33 1034.88 1035.60 1036.03 1036.54 1037.09 1037.66 1038.25 1038.81 1039.28 1039.62 1040.03 1040.33 1040.49 1040.79 1041.06 1041.16 1041.29
1025.28 1025.74 1026.15 1026.16 1026.17 1026.69 1026.43 1026.19 1025.60 1024.96 1024.49 1024.10 1023.89 1023.76 1024.48 1024.96 1025.92 1026.60 1027.58 1028.60 1029.36 1030.15 1031.12 1032.11 1032.91 1033.82 1034.73 1035.38 1036.01 1036.52 1036.97 1037.44 1038.03 1038.67 1039.26 1039.78 1040.22 1040.56 1040.84 1041.11 1041.24 1041.13 1041.13 1040.89
1025.97 1025.96 1026.93 1026.59 1026.61 1026.94 1026.80 1026.15 1025.42 1025.12 1024.75 1024.50 1024.45 1024.75 1025.69 1025.95 1026.62 1027.55 1028.43 1029.26 1029.99 1030.93 1031.89 1032.77 1033.64 1034.39 1035.26 1035.95 1036.57 1037.06 1037.47 1037.84 1038.42 1039.11 1039.74 1040.27 1040.74 1041.05 1041.39 1041.59 1041.57 1040.76 1040.21 1039.86
Thickness
5534 5528 5530 5535 5536 5541 5537 5533 5536 5541 5533 5519 5517 5528 5497 5490 5501 5505 5503 5499 5500 5500 5499 5496 5495 5501 5511 5504 5510 5516 5522 5524 5525 5521 5522 5523 5517 5519 5519 5524 5528 5534 5538 5543
5527 5525 5531 5533 5533 5535 5533 5529 5528 5530 5530 5519 5515 5523 5496 5491 5498 5501 5497 5496 5497 5495 5489 5490 5488 5492 5496 5499 5498 5502 5504 5517 5517 5517 5514 5514 5511 5508 5509 5511 5517 5522 5525 5531
5522 5535 5530 5526 5526 5525 5528 5525 5520 5529 5515 5517 5508 5505 5506 5495 5494 5493 5494 5496 5494 5499 5494 5491 5486 5488 5487 5488 5486 5497 5493 5503 5511 5507 5505 5507 5501 5501 5501 5501 5507 5509 5512 5517
5516 5524 5525 5522 5524 5521 5518 5529 5528 5517 5506 5506 5510 5521 5502 5501 5489 5488 5493 5492 5495 5496 5489 5483 5483 5483 5481 5477 5481 5484 5482 5492 5498 5498 5499 5499 5498 5494 5489 5492 5494 5497 5499 5505
5519 5518 5515 5518 5529 5521 5525 5530 5522 5508 5511 5507 5489 5492 5511 5491 5485 5495 5501 5506 5500 5493 5483 5477 5476 5476 5473 5469 5472 5475 5474 5484 5486 5489 5488 5487 5487 5482 5481 5483 5483 5484 5486 5491
5515 5519 5518 5525 5526 5524 5523 5515 5509 5495 5497 5493 5509 5500 5526 5496 5524 5537 5521 5503 5499 5487 5476 5468 5467 5468 5463 5461 5462 5465 5469 5472 5473 5476 5476 5478 5477 5473 5474 5472 5471 5471 5472 5476
5506 5512 5517 5521 5513 5519 5515 5508 5500 5494 5490 5511 5506 5480 5556 5531 5544 5561 5544 5521 5499 5482 5473 5466 5459 5456 5454 5452 5452 5454 5458 5459 5460 5461 5464 5466 5466 5464 5464 5461 5459 5458 5458 5461
5486 5494 5514 5521 5521 5523 5520 5506 5511 5514 5511 5504 5496 5501 5537 5540 5528 5526 5536 5516 5493 5477 5471 5457 5450 5448 5445 5441 5439 5442 5443 5443 5443 5448 5451 5452 5451 5450 5448 5447 5448 5444 5444 5445
5491 5487 5517 5526 5533 5523 5511 5506 5520 5510 5511 5495 5491 5504 5523 5507 5514 5514 5504 5495 5476 5464 5452 5442 5437 5436 5432 5428 5428 5427 5427 5428 5430 5434 5436 5435 5436 5435 5436 5434 5432 5431 5430 5431
5479 5485 5502 5514 5515 5519 5516 5518 5497 5493 5502 5503 5500 5493 5523 5505 5513 5494 5486 5473 5458 5445 5436 5429 5425 5424 5419 5416 5413 5413 5413 5415 5418 5419 5420 5418 5418 5420 5420 5418 5417 5416 5416 5417
5453 5455 5477 5482 5494 5501 5502 5498 5503 5493 5494 5505 5512 5522 5520 5532 5523 5503 5486 5463 5446 5434 5427 5419 5411 5407 5405 5401 5399 5398 5399 5402 5403 5402 5403 5402 5401 5402 5402 5402 5401 5402 5404 5404
5444 5435 5425 5473 5486 5479 5469 5503 5503 5498 5505 5511 5516 5529 5482 5494 5500 5494 5465 5445 5430 5423 5413 5405 5398 5392 5388 5387 5386 5386 5386 5388 5388 5388 5388 5387 5386 5386 5385 5386 5387 5387 5388 5389
5422 5428 5409 5431 5460 5458 5460 5457 5466 5466 5479 5494 5497 5526 5452 5464 5461 5454 5440 5428 5418 5407 5398 5391 5386 5381 5377 5374 5374 5374 5373 5372 5372 5372 5372 5370 5370 5370 5370 5370 5371 5373 5373 5375
5405 5406 5405 5416 5419 5425 5434 5443 5446 5447 5442 5458 5466 5480 5428 5434 5438 5431 5423 5415 5405 5397 5389 5380 5372 5367 5363 5360 5358 5357 5357 5358 5357 5356 5355 5354 5354 5355 5355 5355 5357 5359 5359 5361
5384 5366 5376 5394 5398 5401 5411 5420 5433 5431 5434 5443 5457 5467 5469 5427 5430 5424 5415 5401 5393 5386 5380 5374 5365 5356 5349 5345 5342 5342 5340 5342 5342 5341 5340 5339 5339 5340 5341 5342 5343 5344 5344 5345
5356 5337 5360 5369 5374 5370 5380 5394 5406 5419 5430 5429 5430 5451 5437 5427 5408 5396 5398 5392 5385 5377 5373 5363 5356 5346 5340 5336 5332 5330 5328 5327 5328 5328 5327 5326 5327 5328 5329 5330 5330 5332 5332 5333
5333 5319 5316 5280 5327 5336 5321 5367 5401 5416 5419 5429 5430 5443 5399 5399 5398 5392 5388 5395 5384 5374 5362 5350 5349 5342 5334 5330 5327 5322 5318 5317 5317 5317 5317 5317 5317 5317 5318 5319 5320 5321 5321 5321
5303 5300 5273 5254 5278 5246 5330 5319 5334 5356 5370 5365 5391 5394 5397 5394 5389 5382 5378 5371 5372 5363 5355 5345 5336 5329 5324 5320 5316 5314 5310 5308 5308 5307 5307 5307 5307 5307 5307 5308 5308 5308 5308 5307
5312 5277 5242 5247 5252 5266 5312 5283 5288 5316 5361 5324 5337 5353 5353 5354 5352 5346 5356 5354 5346 5341 5339 5334 5329 5320 5312 5309 5305 5303 5300 5299 5298 5297 5297 5296 5296 5296 5296 5296 5295 5293 5293 5292
5293 5287 5264 5196 5233 5241 5278 5252 5244 5261 5321 5298 5317 5325 5332 5347 5355 5335 5331 5330 5325 5322 5317 5314 5311 5308 5300 5295 5294 5293 5290 5288 5286 5286 5286 5286 5285 5284 5283 5282 5280 5279 5279 5277
5257 5267 5276 5277 5280 5265 5212 5211 5220 5290 5304 5267 5290 5303 5314 5327 5319 5311 5309 5307 5305 5304 5302 5298 5295 5292 5285 5282 5281 5279 5277 5277 5277 5277 5276 5275 5273 5272 5271 5269 5267 5266 5265 5263
5225 5206 5226 5247 5283 5292 5189 5209 5258 5234 5214 5243 5261 5275 5278 5282 5286 5288 5288 5288 5287 5286 5286 5283 5280 5275 5271 5270 5270 5268 5267 5268 5267 5265 5264 5263 5262 5262 5259 5257 5254 5252 5250 5248
5238 5229 5233 5213 5258 5205 5190 5197 5188 5189 5202 5227 5245 5259 5269 5265 5266 5266 5267 5268 5269 5270 5270 5268 5266 5261 5258 5257 5257 5258 5256 5255 5253 5251 5250 5249 5247 5247 5245 5243 5240 5237 5235 5232
5184 5171 5193 5208 5188 5174 5170 5183 5185 5197 5207 5219 5233 5243 5245 5249 5250 5251 5252 5249 5251 5254 5254 5252 5252 5248 5246 5246 5244 5244 5243 5242 5240 5238 5236 5235 5233 5231 5230 5228 5226 5224 5221 5218
5176 5170 5157 5170 5155 5149 5156 5167 5179 5191 5199 5211 5219 5228 5230 5234 5234 5236 5235 5234 5235 5237 5238 5237 5237 5236 5233 5232 5231 5231 5230 5229 5228 5225 5223 5221 5219 5217 5216 5214 5213 5213 5212 5210
5160 5181 5176 5191 5151 5153 5148 5155 5177 5181 5190 5199 5206 5211 5212 5218 5220 5221 5221 5220 5222 5222 5222 5222 5221 5221 5219 5218 5217 5217 5217 5217 5215 5213 5210 5208 5206 5205 5203 5201 5199 5200 5201 5199